GFSNIL_sfc_wetblb_159.txt.gz
Wetbulb
32.30 32.23 32.14 32.07 32.32 32.14 32.07 32.76 33.40 33.70 34.51 35.33 37.00 38.00 39.20 37.60 38.34 38.47 38.85 37.73 38.44 39.30
30.50 30.54 30.21 30.48 30.90 30.94 31.67 33.15 32.28 32.96 33.41 34.52 35.14 35.36 35.86 35.35 35.28 35.92 36.41 36.23 36.15 37.27
29.41 29.74 29.65 29.80 29.32 29.84 30.47 31.11 31.42 32.00 32.66 33.27 33.22 33.36 33.65 33.73 33.90 33.99 34.65 35.01 35.02 35.16
28.36 28.50 28.80 28.35 28.56 28.99 29.72 30.01 30.35 31.08 31.81 30.91 30.46 30.93 30.69 31.46 31.47 31.88 33.21 33.62 32.96 32.54
27.63 27.37 26.82 26.88 27.53 28.29 27.99 29.11 29.42 30.23 30.05 29.18 29.15 29.29 28.88 28.52 29.41 30.03 30.25 30.77 30.35 29.64
25.76 25.53 25.58 26.10 26.71 27.17 27.29 27.69 28.23 28.57 27.53 28.03 28.63 28.28 28.10 27.87 28.55 28.97 28.38 28.35 27.73 27.73
24.41 24.44 24.58 25.41 25.71 25.98 26.61 26.70 26.09 26.78 27.12 27.62 28.26 28.19 27.46 27.19 27.02 26.72 27.01 27.54 27.20 26.81
24.10 24.13 24.48 24.79 25.23 26.13 26.95 25.60 24.86 25.03 25.13 26.43 27.81 28.49 26.52 25.69 25.59 24.64 24.60 25.46 25.09 25.59
23.53 23.97 23.97 23.90 24.34 25.09 25.28 24.66 23.55 23.97 23.76 23.44 27.23 29.31 28.45 25.68 24.19 23.46 23.06 22.76 22.72 23.80
23.09 22.96 23.42 23.91 24.50 24.01 23.86 24.02 22.61 22.72 22.67 22.47 24.80 28.39 27.89 25.27 23.34 22.33 21.51 21.91 20.83 21.40
22.62 22.53 23.23 23.56 23.10 23.38 23.45 22.85 21.93 21.62 21.86 21.56 24.14 27.34 27.13 24.35 22.22 21.76 20.25 21.16 19.69 19.42
22.25 21.85 21.98 21.52 21.60 22.51 22.26 22.72 22.05 21.61 21.05 20.58 21.02 25.98 25.12 22.41 21.08 20.48 18.31 19.58 18.63 18.59
21.91 21.19 20.34 20.67 20.84 22.08 22.13 21.79 21.53 21.32 20.59 20.22 19.73 23.43 23.59 21.99 19.46 17.99 15.50 16.94 16.92 18.78
20.38 19.82 20.16 20.27 20.62 20.91 21.42 19.99 20.18 19.14 17.82 17.51 17.99 19.10 22.16 21.96 18.26 17.01 12.25 13.73 12.87 14.37

GFSNIL_sfc_wetblb_162.txt.gz
Wetbulb
31.10 30.55 30.44 30.58 30.55 30.55 30.83 31.08 32.30 32.91 33.91 34.51 35.15 36.04 35.67 35.89 36.35 36.29 35.66 34.82 36.02 36.05
29.24 29.12 28.67 29.09 29.60 29.59 30.46 32.56 31.66 32.45 32.65 32.78 33.19 34.18 34.19 33.79 33.87 34.33 34.37 34.36 34.31 34.57
28.07 28.34 28.35 28.62 28.46 28.90 29.74 30.50 30.89 31.55 30.91 30.58 30.70 31.07 31.80 31.44 32.39 32.91 33.02 32.85 31.81 32.01
27.13 27.27 27.70 27.49 27.98 28.36 29.09 29.45 30.20 29.75 29.32 29.07 28.81 29.15 28.99 29.59 30.18 30.42 30.37 30.45 29.70 29.41
26.48 26.46 26.10 26.32 26.78 27.95 28.04 28.66 29.34 28.77 28.53 28.29 28.01 27.89 27.59 27.85 28.80 27.96 27.84 28.11 27.59 27.17
24.83 24.84 24.87 25.37 26.50 27.30 27.23 26.86 27.70 27.93 27.73 27.72 27.47 26.61 26.99 27.19 27.03 26.63 26.70 26.43 25.48 23.62
24.02 24.19 24.18 24.80 25.43 26.15 26.25 25.59 26.33 26.30 27.29 27.98 27.64 26.35 25.69 25.97 25.31 25.42 25.74 25.79 25.68 23.57
23.89 23.67 24.01 24.60 25.23 25.75 25.21 24.88 24.96 24.79 25.34 27.07 27.88 27.48 25.28 25.22 24.11 23.90 23.78 23.38 23.92 23.32
23.37 23.71 23.77 24.07 24.49 24.72 24.20 24.83 24.77 24.23 24.20 24.76 27.51 28.58 27.02 24.87 23.42 23.03 22.94 21.61 21.81 22.58
22.96 22.91 22.99 23.77 23.79 24.13 23.31 23.40 23.05 22.88 23.27 23.43 25.51 28.27 26.10 24.57 23.14 21.36 21.35 20.68 20.18 20.69
22.47 22.52 23.42 23.82 23.70 23.66 23.50 22.41 22.22 22.04 22.17 22.31 25.05 26.35 25.21 23.47 22.45 20.34 19.56 19.75 18.62 18.50
23.16 22.76 22.55 22.54 22.95 23.15 23.46 22.42 21.73 21.98 21.23 21.02 22.52 24.90 24.50 21.28 20.60 18.94 17.18 18.74 17.16 17.79
22.70 22.55 22.13 22.44 22.71 23.20 23.42 22.12 22.04 20.29 20.14 19.78 19.43 23.65 23.53 20.73 19.34 16.22 14.12 15.70 15.43 18.02
21.56 21.55 21.86 21.64 21.95 22.15 21.44 20.85 19.30 16.87 17.04 17.24 17.20 19.75 22.03 21.64 18.18 15.24 11.73 11.18 11.06 13.01

GFSNIL_sfc_wetblb_165.txt.gz
Wetbulb
30.21 29.67 29.65 29.92 29.97 29.84 29.89 30.53 32.06 32.51 32.69 33.17 34.29 34.22 34.56 34.80 35.12 34.43 34.21 33.58 34.21 34.18
28.56 28.47 28.15 28.44 28.85 28.91 30.06 32.44 31.37 31.33 30.60 30.89 31.62 32.59 32.49 32.69 32.82 33.09 32.89 32.05 32.02 32.44
27.44 27.83 27.74 28.13 27.91 28.39 29.33 30.33 30.16 29.63 29.53 29.34 29.63 30.13 30.58 30.67 31.65 30.88 31.03 30.45 29.68 29.89
26.58 26.82 27.23 27.08 27.32 27.81 28.70 29.49 29.04 29.11 28.93 28.71 28.23 28.52 28.73 29.39 29.41 28.51 28.29 28.41 27.66 27.74
26.02 26.07 25.39 25.61 26.33 27.35 27.61 28.87 28.64 28.69 28.24 27.93 27.54 27.69 27.95 27.23 26.99 26.27 26.48 26.32 24.51 24.09
25.08 24.73 24.47 25.02 26.03 26.43 26.73 27.20 27.91 28.22 27.63 27.36 26.68 26.59 26.47 26.02 26.34 26.13 25.90 24.76 22.97 23.17
24.24 24.40 24.21 24.94 25.29 25.59 25.45 26.00 26.11 26.62 27.40 27.08 25.92 26.00 26.10 25.71 25.61 25.57 24.97 25.67 23.93 23.10
23.98 23.74 24.03 24.58 24.82 24.71 24.88 24.52 25.16 25.62 26.67 28.09 27.50 26.99 25.34 24.76 24.43 24.13 22.85 23.53 23.50 23.04
23.31 23.65 23.79 24.06 23.74 23.68 23.75 23.92 24.55 25.66 25.60 26.49 27.57 27.84 26.84 24.93 22.95 23.36 22.32 21.26 21.77 22.35
22.88 22.77 23.14 23.45 23.29 23.29 23.12 23.65 23.58 23.83 24.32 25.16 26.06 27.16 25.63 24.92 22.35 21.71 21.14 19.89 19.78 20.30
22.20 22.06 23.42 24.55 24.17 23.28 23.08 22.56 22.70 22.71 23.26 23.78 24.68 26.10 24.16 23.66 21.61 19.76 20.00 18.34 18.44 18.71
22.28 22.49 22.87 23.01 23.02 23.25 22.86 22.57 22.30 22.48 22.07 21.79 22.96 24.97 23.21 21.81 20.36 18.11 18.24 17.44 17.05 18.32
22.35 22.14 22.47 22.29 22.92 24.25 23.96 22.91 22.35 20.79 20.45 20.18 20.41 23.62 23.38 20.49 19.53 15.08 15.08 14.85 15.34 18.47
20.93 22.15 22.47 22.33 22.88 22.93 22.21 20.81 18.61 17.61 17.66 18.01 17.92 20.44 22.23 21.51 18.61 14.22 11.76 11.23 11.28 13.12

GFSNIL_sfc_wetblb_171.txt.gz
Wetbulb
31.99 32.15 32.01 32.23 32.38 32.42 32.83 32.93 33.16 33.29 33.66 34.35 35.14 35.43 35.81 35.61 35.05 34.63 34.25 33.53 33.18 32.79
30.62 30.80 30.52 30.67 31.39 31.86 32.89 32.80 31.43 31.85 31.81 32.43 33.43 33.94 33.65 32.99 32.50 32.62 32.52 31.94 31.18 29.97
29.46 29.87 30.02 30.48 30.36 31.04 30.95 30.67 30.33 30.35 30.64 30.92 31.59 32.07 32.02 31.34 31.06 30.63 30.58 29.35 28.16 28.08
28.73 28.94 29.31 29.21 29.60 30.24 29.89 29.66 29.39 29.45 29.38 29.63 29.78 30.23 29.81 29.47 29.13 27.60 27.73 28.06 27.44 26.59
27.98 27.97 27.77 27.96 28.82 29.72 28.75 29.12 28.75 28.57 28.46 28.31 28.26 28.76 28.57 27.79 27.14 25.97 25.74 26.07 26.21 25.86
26.98 26.92 27.03 27.55 28.35 28.44 28.28 28.22 28.16 27.62 27.04 27.00 27.27 27.34 27.54 27.40 27.11 25.91 25.46 25.12 24.82 24.93
26.20 26.44 26.69 27.17 27.45 27.65 27.74 27.61 27.38 26.92 26.68 26.91 26.83 26.99 27.18 26.53 26.32 26.06 25.13 25.04 24.51 23.97
26.42 26.16 26.41 26.31 26.54 26.69 26.81 26.92 27.39 27.04 27.15 27.37 26.82 26.29 26.09 25.88 24.68 24.07 23.62 23.81 23.44 23.10
25.44 25.31 25.66 25.32 25.35 25.35 25.41 25.90 26.50 26.95 26.91 26.30 27.23 28.21 26.74 25.55 24.23 23.44 22.63 21.52 21.77 21.96
24.75 24.60 24.76 24.47 24.35 24.05 24.39 25.11 24.98 25.21 25.47 25.34 26.32 27.43 25.76 24.95 23.21 21.31 20.55 20.41 20.32 20.03
23.70 23.63 23.75 23.38 23.27 23.29 24.06 23.57 23.56 24.23 25.03 25.13 25.18 26.18 25.17 23.17 21.59 19.72 19.33 19.24 19.40 18.91
22.91 22.73 22.58 22.15 22.28 22.73 22.95 23.19 23.29 23.60 23.83 23.63 24.09 24.46 24.43 22.18 21.00 18.83 17.78 18.29 18.89 18.60
22.78 22.76 22.45 22.48 21.93 22.98 23.21 23.04 23.80 22.29 21.97 21.71 23.08 24.37 23.14 21.78 19.35 16.89 15.19 15.78 15.99 20.32
22.10 22.23 22.40 22.03 22.36 22.07 22.63 22.32 20.85 19.56 19.49 19.62 20.22 22.78 23.21 21.33 17.51 15.37 13.42 12.80 12.82 15.00